Regional Weather Roundup
Issued by NWS

Home | Current Version | Previous Version | Text Only | Print | Product List | Glossary On
Versions: 1 2 3 4 5 6 7 8 9 10 11 12 13 14 15 16 17 18 19 20 21 22 23 24 25 26 27 28 29 30 31 32 33 34 35 36 37 38 39 40 41 42 43 44 45 46 47 48 49 50
000
ASUS43 KDTX 230510
RWRMI
MICHIGAN HOURLY REGIONAL WEATHER ROUNDUP
NATIONAL WEATHER SERVICE DETROIT/PONTIAC MI
100 AM EDT TUE AUG 23 2016

NOTE: "FAIR" INDICATES FEW OR NO CLOUDS BELOW 12,000 FEET WITH NO
SIGNIFICANT WEATHER AND/OR OBSTRUCTION TO VISIBILITY.

MIZ047>049-052>055-059>063-066>070-074>076-081>083-230600-
SOUTHEAST LOWER MICHIGAN

CITY           SKY/WX    TMP DP  RH WIND       PRES   REMARKS
ADRIAN         CLEAR     58  56  93 CALM      30.24R
ALMA           CLEAR     57  57 100 CALM      30.20R
ANN ARBOR      CLEAR     52  52 100 CALM      30.22R
BAD AXE        CLEAR     59  54  84 SW5       30.20R
CARO           CLEAR     56  56  97 CALM      30.20R
DETROIT CITY   CLEAR     66  55  67 SW3       30.22R
DETROIT        CLEAR     64  54  69 S5        30.22S
FLINT          CLEAR     64  54  69 SW5       30.21R
GROSSE ILE     CLEAR     68  57  67 SW5       30.21R
HILLSDALE      CLEAR     56  54  91 CALM      30.22S
HOWELL         CLEAR     62  54  76 CALM      30.22R

CITY           SKY/WX    TMP DP  RH WIND       PRES   REMARKS
JACKSON        CLEAR     62  55  77 S3        30.22R
LAMBERTVILLE   CLEAR     58  55  87 CALM      30.23R
LANSING        CLEAR     61  54  77 CALM      30.22R
LAPEER         FAIR      55  54  94 S5        30.22R
MASON          CLEAR     60  55  82 CALM      30.22S
MONROE         CLEAR     59  57  92 CALM      30.21R
PONTIAC        CLEAR     63  55  75 CALM      30.22R
PORT HURON     CLEAR     55  55 100 CALM      30.22R FOG
TRI CITIES     CLEAR     63  58  83 SW6       30.20R
MIDLAND        FAIR      57  56  97 CALM      30.18S
TROY           CLEAR     66  52  60 W5        30.24R
SAGINAW HB     CLEAR     61  55  82 SW6       30.19R
$$
MIZ043>046-050>051-056>058-064>065-071>073-077>080-230600-
SOUTHWEST LOWER MICHIGAN

CITY           SKY/WX    TMP DP  RH WIND       PRES   REMARKS
BATTLE CREEK   CLEAR     59  57  93 CALM      30.22R
BENTON HARBOR  CLEAR     62  56  80 SE3       30.19R
BIG RAPIDS     CLEAR     56  55  95 CALM      30.18R
COLDWATER      CLEAR     59  56  92 CALM      30.22R
FREMONT        FAIR      60  53  76 S6        30.17S
HOLLAND        CLEAR     59  55  87 S5        30.20R
GRAND RAPIDS   CLEAR     60  55  83 S7        30.20R
IONIA          FAIR      57  55  91 CALM      30.20R
KALAMAZOO      CLEAR     62  56  80 CALM      30.21R
LUDINGTON      CLEAR     65  58  79 S5        30.14R
MARSHALL       CLEAR     61  57  88 CALM      30.21S
MOUNT PLEASANT CLEAR     58  56  95 CALM      30.18S
MUSKEGON       CLEAR     64  58  80 SE8       30.18R
SOUTH HAVEN    CLEAR     63  59  86 CALM      30.20R
$$
MIZ016>042-230600-
NORTHERN LOWER MICHIGAN

CITY           SKY/WX    TMP DP  RH WIND       PRES   REMARKS
ALPENA         PTCLDY    64  52  64 SW5       30.15S
BEAVER ISLAND  LGT RAIN  66  64  93 SW22G29   30.07R
BELLAIRE       CLOUDY    66  55  67 S6        30.15S
CADILLAC       CLEAR     58  52  81 NW3       30.20R
CHARLEVOIX     CLOUDY    64  58  80 SW9       30.16S
FRANKFORT      CLOUDY    66  56  68 E3        30.15F
GAYLORD        CLOUDY    64  51  62 SW13      30.16F
GRAYLING       CLOUDY    62  55  76 SW3       30.18F
HARBOR SPRINGS LGT RAIN  66  58  75 SW14G21   30.11S
HOUGHTON LAKE  CLOUDY    64  54  69 SW8       30.20R
MANISTEE       CLOUDY    62  55  77 E6        30.16R
OSCODA         CLEAR     62  55  77 SW7       30.15S
PELLSTON       LGT RAIN  68  54  60 SW10G18   30.10F
ROGERS CITY    MOCLDY    62  53  71 S5        30.14R
TRAVERSE CITY  LGT RAIN  64  56  75 CALM      30.15S
$$
MIZ007>008-015-230600-
EASTERN UPPER MICHIGAN

CITY           SKY/WX    TMP DP  RH WIND       PRES   REMARKS
KINROSS        CLOUDY    65  55  70 SW6       30.08S
MACKINAC ISLAN CLOUDY    67  54  62 SW7       30.10R
NEWBERRY       CLOUDY    65  62  88 SW14      30.06S
S. S. MARIE    CLOUDY    61  55  81 SE5       30.07F
MUNISING         N/A     67  60  78 S12G23    30.01R
$$
MIZ004>006-011>014-085-230600-
CENTRAL UPPER MICHIGAN

CITY           SKY/WX    TMP DP  RH WIND       PRES   REMARKS
MANISTIQUE     RAIN      65  64  97 W6        30.05F
ESCANABA       LGT RAIN  67  63  87 S9        30.09F
MENOMINEE      MOCLDY   N/A N/A N/A SE8       30.12R
SAWYER-GWINN   LGT RAIN  63  60  91 S15       30.06S
$$
MIZ001>003-009>011-084-230600-
WESTERN UPPER MICHIGAN

CITY           SKY/WX    TMP DP  RH WIND       PRES   REMARKS
IRON MOUNTAIN  LGT RAIN  63  59  87 SE7       30.07R
HOUGHTON       CLOUDY    67  60  78 SW16G22   29.95S
COPPER HARBOR    N/A     71  61  70 W15G26    29.91F
IRONWOOD       CLEAR     70  61  73 S15G31    29.95S
$$

ABBREVIATIONS USED IN REMARKS
   TC - TEMPERATURE IN CELSIUS
  WCI - WIND CHILL INDEX
   HX - HEAT INDEX
  VSB - VISIBILITY





USA.gov is the U.S. government's official web portal to all federal, state and local government web resources and services.